Location: Torrington
(42.0650°N, 104.1810°W)
Time: 10:04:47
(UTC-07:00)

Amateur Radio Satellites - All Passes

Search period start: 23 November 2014 09:34
Search period end: 24 November 2014 09:34
Location: Torrington, 42.0650°N, 104.1810°W

Satellite Date Start Highest point End Downlink Frequencies (MHz)
Time Altitude Azimuth
CUBEBUG 2 23 Nov 09:37:10 09:41:07 38° 98° (E) 09:45:08 437.445
Oscar 11 23 Nov 09:40:59 09:45:21 75° 102° (ESE) 09:49:42 145.826/435.025
CINEMA 3 23 Nov 09:42:28 09:46:39 72° 102° (ESE) 09:50:56 145.822/145.860
UWE-3 23 Nov 09:43:48 09:47:46 39° 98° (E) 09:51:48 435.000/436.395/437.385
SEEDS 23 Nov 09:51:53 09:55:39 31° 290° (WNW) 09:59:26 437.485
POLYITAN 1 23 Nov 09:53:48 09:58:03 71° 75° (ENE) 10:02:18 437.675
QB50P2 23 Nov 09:57:03 10:01:19 77° 76° (ENE) 10:05:35 145.880/145.840
TIGRISAT 23 Nov 09:58:06 10:02:22 74° 258° (WSW) 10:06:38 435.000
DX 1 23 Nov 09:59:52 10:04:14 79° 285° (WNW) 10:08:33 434.975-435.025
SHINDAISAT 23 Nov 10:04:09 10:05:02 13° 116° (ESE) 10:05:55 437.305
DUCHIFAT 1 23 Nov 10:05:07 10:09:23 88° 257° (WSW) 10:13:40 145.980
ESTCUBE 1 23 Nov 10:05:30 10:08:00 14° 91° (E) 10:10:28 437.505/2401.250
UNISAT 6 23 Nov 10:10:09 10:14:20 53° 260° (W) 10:18:32 437.425
AAUSAT CUBESAT 2 23 Nov 10:15:12 10:18:35 24° 292° (WNW) 10:21:58 437.432
VELOX 1 23 Nov 10:16:21 10:20:39 48° 100° (E) 10:24:54 145.980
CANX-2 23 Nov 10:16:41 10:19:11 15° 296° (WNW) 10:21:40 2200.000
DOVE 4 23 Nov 10:22:11 10:25:37 26° 291° (WNW) 10:29:06 437.250
NANOSAT C BR1 23 Nov 10:24:10 10:28:20 53° 260° (W) 10:32:31 145.865
ZACube-1 23 Nov 10:25:34 10:29:47 81° 285° (WNW) 10:34:04 437.345
COMPASS 1 23 Nov 10:29:01 10:31:37 16° 295° (WNW) 10:34:13 437.405
HUMSAT D 23 Nov 10:31:27 10:35:37 71° 102° (ESE) 10:39:47 437.325/437.525
QB50P1 23 Nov 10:33:48 10:37:51 41° 261° (W) 10:41:54 145.935-145.965
DELFI C3 23 Nov 10:35:20 10:38:59 31° 290° (WNW) 10:42:37 145.870
ANTELSAT 23 Nov 10:39:18 10:42:54 26° 265° (W) 10:46:29 437.575/2403.000
50 SAT 23 Nov 10:40:24 10:44:28 75° 102° (ESE) 10:48:32 437.505
AISAT 23 Nov 10:40:37 10:45:05 90° 290° (WNW) 10:49:29 437.250
GOMX 1 23 Nov 10:53:04 10:53:33 10° 299° (WNW) 10:54:02 467.674
HO-68 23 Nov 10:55:41 11:00:48 22° 305° (NW) 11:05:55 435.675
Oscar 19 23 Nov 10:56:52 10:57:12 10° 56° (ENE) 10:57:33 437.125/150
POPSAT HIP 1 23 Nov 10:59:01 11:02:24 23° 265° (W) 11:05:48 437.405
BUGSAT 1 23 Nov 11:00:45 11:04:19 25° 265° (W) 11:07:52 437.445
FUNcube-1 23 Nov 11:01:52 11:05:38 32° 290° (WNW) 11:09:26 145.935
UKube-1 23 Nov 11:04:33 11:07:29 18° 296° (WNW) 11:10:24 .
CUBEBUG 1 23 Nov 11:04:49 11:09:09 59° 101° (E) 11:13:26 437.445
TISAT 1 23 Nov 11:05:47 11:08:11 15° 92° (E) 11:10:35 437.305
SPROUT 23 Nov 11:06:29 11:08:37 13° 91° (E) 11:10:43 437.525
SO-50 23 Nov 11:08:22 11:10:49 14° 35° (NE) 11:13:16 436.795
CUBEBUG 2 23 Nov 11:14:37 11:17:35 19° 294° (WNW) 11:20:34 437.445
Oscar 11 23 Nov 11:19:32 11:20:55 11° 299° (WNW) 11:22:17 145.826/435.025
UWE-3 23 Nov 11:21:09 11:24:04 19° 294° (WNW) 11:27:01 435.000/436.395/437.385
CINEMA 3 23 Nov 11:22:19 11:23:20 11° 298° (WNW) 11:24:22 145.822/145.860
GONETS M04 23 Nov 11:24:45 11:26:20 11° 308° (NW) 11:27:56
ESTCUBE 1 23 Nov 11:40:46 11:45:13 56° 287° (WNW) 11:49:38 437.505/2401.250
ITAMSAT 1 23 Nov 11:42:02 11:43:38 11° 57° (ENE) 11:45:13 435.822/435.867
YUBILEINY 23 Nov 11:43:56 11:48:27 15° 57° (ENE) 11:52:56 435.215
VELOX 1 23 Nov 11:53:59 11:56:52 17° 296° (WNW) 11:59:44 145.980
ITUPSAT 1 23 Nov 12:08:28 12:09:37 11° 89° (E) 12:10:45 437.325
HUMSAT D 23 Nov 12:09:47 12:10:52 11° 298° (WNW) 12:11:57 437.325/437.525
SWISSCUBE 23 Nov 12:19:00 12:21:58 16° 91° (E) 12:24:54 437.505
DANDE 23 Nov 12:22:41 12:23:28 11° 93° (E) 12:24:13 436.750
Oscar 19 23 Nov 12:30:33 12:35:38 75° 74° (ENE) 12:40:45 437.125/150
TISAT 1 23 Nov 12:40:15 12:44:18 47° 288° (WNW) 12:48:19 437.305
SPROUT 23 Nov 12:40:51 12:45:02 53° 287° (WNW) 12:49:11 437.525
AO-7 23 Nov 12:42:39 12:45:36 12° 42° (NE) 12:48:34 29.400- 29.500
CUBEBUG 1 23 Nov 12:42:44 12:45:02 14° 298° (WNW) 12:47:19 437.445
SO-50 23 Nov 12:47:24 12:52:16 68° 55° (NE) 12:57:09 436.795
BEESAT 23 Nov 12:49:45 12:53:59 30° 96° (E) 12:58:11 436.000
AUBIESAT-1 23 Nov 12:56:01 13:00:43 43° 103° (ESE) 13:05:19 437.475
M-CUBED/EXP-1 PRIME 23 Nov 12:59:06 13:03:55 50° 104° (ESE) 13:08:39 437.505
ITAMSAT 1 23 Nov 13:17:02 13:22:15 81° 74° (ENE) 13:27:30 435.822/435.867
STARS 23 Nov 13:31:07 13:31:28 10° 89° (E) 13:31:48 437.465
Gurwin Techsat 1B 23 Nov 13:32:30 13:37:44 64° 73° (ENE) 13:43:00 435.225
YUBILEINY 23 Nov 13:38:18 13:47:03 72° 80° (E) 13:55:41 435.215
ITUPSAT 1 23 Nov 13:43:15 13:48:05 81° 285° (WNW) 13:52:52 437.325
CUSAT 1 23 Nov 13:51:16 13:53:23 19° 285° (WNW) 13:55:24 437.405
SWISSCUBE 23 Nov 13:55:28 14:00:10 55° 288° (WNW) 14:04:50 437.505
KKS-1 23 Nov 14:02:32 14:06:36 35° 98° (E) 14:10:40 437.445
DANDE 23 Nov 14:04:49 14:06:48 17° 285° (WNW) 14:08:38 436.750
Oscar 19 23 Nov 14:13:15 14:15:32 13° 271° (W) 14:17:49 437.125/150
HORYU 2 23 Nov 14:16:29 14:20:54 77° 75° (ENE) 14:25:21 437.375
BEESAT 23 Nov 14:27:37 14:31:46 30° 293° (WNW) 14:35:53 436.000
AO-7 23 Nov 14:28:33 14:36:27 52° 63° (ENE) 14:44:25 29.400- 29.500
SO-50 23 Nov 14:29:25 14:32:17 16° 251° (WSW) 14:35:09 436.795
AUBIESAT-1 23 Nov 14:31:28 14:35:26 25° 299° (WNW) 14:39:22 437.475
M-CUBED/EXP-1 PRIME 23 Nov 14:34:51 14:38:35 22° 301° (WNW) 14:42:19 437.505
ITAMSAT 1 23 Nov 15:00:15 15:02:21 12° 271° (W) 15:04:27 435.822/435.867
STARS 23 Nov 15:04:03 15:08:27 74° 285° (WNW) 15:12:49 437.465
MaSat-1 23 Nov 15:07:09 15:09:54 30° 112° (ESE) 15:12:26 437.345
Gurwin Techsat 1B 23 Nov 15:14:52 15:18:08 16° 269° (W) 15:21:26 435.225
PHONESAT 2.4 23 Nov 15:16:17 15:19:00 19° 151° (SSE) 15:21:44 2401.200-2431.200
JAS-2 23 Nov 15:35:06 15:42:11 45° 66° (ENE) 15:49:31 435.910
YUBILEINY 23 Nov 15:36:26 15:42:56 24° 280° (W) 15:49:26 435.215
VERMONT LUNAR 23 Nov 15:37:59 15:41:15 32° 158° (SSE) 15:44:31 437.305
Cubesat XI-IV 23 Nov 15:39:24 15:40:29 11° 56° (NE) 15:41:33 437.490
KKS-1 23 Nov 15:39:36 15:43:03 23° 294° (WNW) 15:46:30 437.445
O/OREOS (USA 219) 23 Nov 15:50:24 15:54:49 58° 65° (ENE) 15:59:14 437.305
RS-15 23 Nov 15:59:40 16:10:17 59° 114° (ESE) 16:20:52 29.354- 29.394
CUTE-I 23 Nov 16:18:00 16:22:10 23° 63° (ENE) 16:26:19 437.470
AO-7 23 Nov 16:21:57 16:29:25 37° 262° (W) 16:36:59 29.400- 29.500
MOZHAYETS 4 23 Nov 16:23:50 16:28:03 33° 96° (E) 16:32:13
MaSat-1 23 Nov 16:43:24 16:44:34 12° 305° (NW) 16:45:42 437.345
PHONESAT 2.4 23 Nov 16:53:45 16:57:23 54° 167° (SSE) 17:01:02 2401.200-2431.200
PRISM 23 Nov 17:00:06 17:02:12 13° 91° (E) 17:04:18 437.425
Cubesat XI-IV 23 Nov 17:14:16 17:19:37 73° 73° (ENE) 17:24:59 437.490
VERMONT LUNAR 23 Nov 17:15:53 17:19:30 67° 175° (S) 17:23:06 437.305
JAS-2 23 Nov 17:20:06 17:27:08 42° 265° (W) 17:34:31 435.910
STRAND 1 23 Nov 17:26:48 17:27:49 11° 88° (E) 17:28:51 437.568
O/OREOS (USA 219) 23 Nov 17:31:31 17:33:41 13° 261° (W) 17:35:51 437.305
GONETS M04 23 Nov 17:33:08 17:38:27 17° 59° (ENE) 17:43:42
HO-68 23 Nov 17:52:51 17:55:54 13° 49° (NE) 17:58:57 435.675
CUTE-I 23 Nov 17:56:43 18:01:54 49° 260° (W) 18:07:06 437.470
CUBESAT XI-V 23 Nov 17:57:56 18:01:41 23° 94° (E) 18:05:23 437.345
MOZHAYETS 4 23 Nov 18:01:16 18:05:08 26° 293° (WNW) 18:08:59
RS-15 23 Nov 18:12:37 18:22:58 46° 318° (NW) 18:33:27 29.354- 29.394
PHONESAT 2.4 23 Nov 18:32:22 18:36:04 68° 184° (S) 18:39:46 2401.200-2431.200
PRISM 23 Nov 18:33:56 18:38:05 53° 287° (WNW) 18:42:11 437.425
VERMONT LUNAR 23 Nov 18:54:18 18:57:53 55° 192° (SSW) 19:01:26 437.305
Cubesat XI-IV 23 Nov 18:57:22 19:00:14 15° 270° (W) 19:03:07 437.490
BRITE-PL 23 Nov 18:59:11 19:02:39 19° 66° (ENE) 19:05:57 437.365/2234.400
STRAND 1 23 Nov 19:02:32 19:07:41 88° 285° (WNW) 19:12:47 437.568
SEEDS 23 Nov 19:10:09 19:12:58 18° 65° (ENE) 19:15:49 437.485
DX 1 23 Nov 19:24:00 19:24:37 10° 59° (ENE) 19:25:14 434.975-435.025
AIST 1 23 Nov 19:27:00 19:31:11 46° 93° (E) 19:35:25
GONETS M04 23 Nov 19:27:59 19:36:53 79° 81° (E) 19:45:40
AAUSAT CUBESAT 2 23 Nov 19:31:44 19:34:59 23° 67° (ENE) 19:38:15 437.432
CANX-2 23 Nov 19:33:15 19:37:09 39° 71° (ENE) 19:41:05 2200.000
CUBESAT XI-V 23 Nov 19:34:56 19:39:12 36° 290° (WNW) 19:43:26 437.345
HO-68 23 Nov 19:35:10 19:42:13 63° 69° (ENE) 19:49:19 435.675
COMPASS 1 23 Nov 19:44:36 19:48:22 35° 71° (ENE) 19:52:11 437.405
DOVE 4 23 Nov 19:50:39 19:54:44 31° 70° (ENE) 19:58:37 437.250
DELFI C3 23 Nov 19:50:45 19:53:14 16° 65° (ENE) 19:55:43 145.870
PCSat 23 Nov 20:04:28 20:09:51 78° 118° (ESE) 20:15:18 145.827
CUTE 1.7 & AOD 2 23 Nov 20:07:54 20:12:07 88° 77° (ENE) 20:16:22 437.475
PHONESAT 2.4 23 Nov 20:11:15 20:14:39 34° 201° (SSW) 20:18:02 2401.200-2431.200
BEESAT 3 23 Nov 20:20:05 20:24:01 47° 118° (ESE) 20:28:02 437.485
GOMX 1 23 Nov 20:20:07 20:25:01 84° 76° (ENE) 20:29:35 467.674
UKube-1 23 Nov 20:23:07 20:27:12 41° 71° (ENE) 20:31:18 .
FUNcube-1 23 Nov 20:23:17 20:26:14 19° 66° (ENE) 20:29:10 145.935
RS-15 23 Nov 20:31:03 20:39:08 23° 351° (N) 20:47:23 29.354- 29.394
VERMONT LUNAR 23 Nov 20:33:13 20:35:58 21° 208° (SSW) 20:38:44 437.305
BEESAT 2 23 Nov 20:33:18 20:37:20 60° 119° (ESE) 20:41:28 435.950
BRITE-PL 23 Nov 20:35:52 20:40:52 51° 260° (W) 20:45:30 437.365/2234.400
Oscar 11 23 Nov 20:36:12 20:40:25 60° 74° (ENE) 20:44:41 145.826/435.025
CUBEBUG 2 23 Nov 20:36:24 20:40:18 35° 71° (ENE) 20:44:08 437.445
UWE-3 23 Nov 20:41:58 20:45:49 34° 71° (ENE) 20:49:38 435.000/436.395/437.385
STRAND 1 23 Nov 20:44:11 20:46:05 12° 302° (WNW) 20:47:58 437.568
SEEDS 23 Nov 20:44:34 20:48:30 40° 262° (W) 20:52:29 437.485
CINEMA 3 23 Nov 20:44:52 20:49:17 70° 75° (ENE) 20:53:33 145.822/145.860
DX 1 23 Nov 20:55:47 21:00:11 85° 256° (WSW) 21:04:36 434.975-435.025
AIST 2 23 Nov 20:56:30 21:00:36 52° 118° (ESE) 21:04:47 435.215
ESTCUBE 1 23 Nov 21:06:14 21:08:54 16° 63° (ENE) 21:11:36 437.505/2401.250
AIST 1 23 Nov 21:06:22 21:09:07 16° 290° (WNW) 21:11:54
AAUSAT CUBESAT 2 23 Nov 21:06:51 21:10:31 30° 264° (W) 21:14:14 437.432
CANX-2 23 Nov 21:10:23 21:13:15 18° 268° (W) 21:16:09 2200.000
VELOX 1 23 Nov 21:14:41 21:18:58 46° 72° (ENE) 21:23:16 145.980
COMPASS 1 23 Nov 21:21:11 21:24:13 19° 267° (W) 21:27:16 437.405
ZACube-1 23 Nov 21:22:14 21:26:29 84° 76° (ENE) 21:30:41 437.345
DELFI C3 23 Nov 21:24:18 21:28:11 44° 261° (W) 21:32:07 145.870
HUMSAT D 23 Nov 21:24:20 21:28:22 53° 73° (ENE) 21:32:23 437.325/437.525
HO-68 23 Nov 21:24:41 21:30:23 25° 267° (W) 21:36:07 435.675
GONETS M04 23 Nov 21:26:24 21:32:38 22° 281° (W) 21:38:51
DOVE 4 23 Nov 21:28:36 21:32:30 26° 264° (W) 21:36:14 437.250
50 SAT 23 Nov 21:29:52 21:33:47 50° 73° (ENE) 21:37:42 437.505
AISAT 23 Nov 21:39:09 21:43:39 87° 76° (ENE) 21:48:09 437.250
POLYITAN 1 23 Nov 21:41:51 21:43:08 11° 90° (E) 21:44:26 437.675
QB50P2 23 Nov 21:44:30 21:46:14 12° 90° (E) 21:47:57 145.880/145.840
TIGRISAT 23 Nov 21:50:02 21:53:26 21° 94° (E) 21:56:52 435.000
PCSat 23 Nov 21:50:04 21:53:54 19° 317° (NW) 21:57:47 145.827
DUCHIFAT 1 23 Nov 21:51:40 21:54:01 15° 92° (E) 21:56:21 145.980
FUNcube-1 23 Nov 21:58:24 22:02:21 38° 262° (W) 22:06:16 145.935
BEESAT 3 23 Nov 21:59:23 22:02:30 20° 316° (NW) 22:05:40 437.485
TISAT 1 23 Nov 21:59:51 22:01:57 14° 63° (ENE) 22:04:03 437.305
UKube-1 23 Nov 22:00:31 22:03:32 18° 267° (W) 22:06:35 .
CUBEBUG 1 23 Nov 22:01:29 22:05:48 52° 73° (ENE) 22:10:08 437.445
UNISAT 6 23 Nov 22:01:55 22:05:48 29° 96° (E) 22:09:44 437.425
SPROUT 23 Nov 22:02:16 22:04:05 13° 62° (ENE) 22:05:54 437.525
NANOSAT C BR1 23 Nov 22:09:48 22:13:12 23° 95° (E) 22:16:35 145.865
BEESAT 2 23 Nov 22:13:11 22:16:01 18° 318° (NW) 22:18:53 435.950
CUBEBUG 2 23 Nov 22:13:56 22:17:06 20° 266° (W) 22:20:14 437.445
Oscar 11 23 Nov 22:15:18 22:16:59 12° 270° (W) 22:18:41 145.826/435.025
QB50P1 23 Nov 22:19:06 22:22:49 29° 96° (E) 22:26:31 145.935-145.965
UWE-3 23 Nov 22:19:19 22:22:28 20° 266° (W) 22:25:35 435.000/436.395/437.385
CINEMA 3 23 Nov 22:26:12 22:26:55 10° 270° (W) 22:27:38 145.822/145.860
ANTELSAT 23 Nov 22:30:01 22:34:24 59° 101° (E) 22:38:52 437.575/2403.000
AIST 2 23 Nov 22:36:21 22:39:32 20° 317° (NW) 22:42:45 435.215
ESTCUBE 1 23 Nov 22:40:51 22:45:19 57° 259° (W) 22:49:50 437.505/2401.250
BUGSAT 1 23 Nov 22:42:29 22:46:25 43° 99° (E) 22:50:17 437.445
POPSAT HIP 1 23 Nov 22:43:16 22:47:25 55° 100° (E) 22:51:33 437.405
CUSAT 1 23 Nov 22:44:30 22:47:27 17° 74° (ENE) 22:50:54 437.405
RS-15 23 Nov 22:47:16 22:56:33 29° 26° (NNE) 23:06:06 29.354- 29.394
VELOX 1 23 Nov 22:52:52 22:55:48 17° 268° (W) 22:58:44 145.980
DANDE 23 Nov 22:59:26 23:02:31 19° 75° (ENE) 23:06:13 436.750
HUMSAT D 23 Nov 23:02:39 23:04:30 13° 269° (W) 23:06:21 437.325/437.525
50 SAT 23 Nov 23:07:35 23:09:24 13° 269° (W) 23:11:14 437.505
ISS 23 Nov 23:08:50 23:10:58 16° 132° (SE) 23:13:07 145.825
ITUPSAT 1 23 Nov 23:15:18 23:18:00 15° 61° (ENE) 23:20:43 437.325
POLYITAN 1 23 Nov 23:15:19 23:19:31 62° 286° (WNW) 23:23:40 437.675
QB50P2 23 Nov 23:18:22 23:22:32 57° 286° (WNW) 23:26:40 145.880/145.840
DUCHIFAT 1 23 Nov 23:26:06 23:30:10 48° 288° (WNW) 23:34:12 145.980
SWISSCUBE 23 Nov 23:26:14 23:29:46 21° 64° (ENE) 23:33:19 437.505
TIGRISAT 23 Nov 23:26:16 23:30:16 36° 290° (WNW) 23:34:21 435.000
TISAT 1 23 Nov 23:33:05 23:37:18 60° 259° (W) 23:41:33 437.305
SPROUT 23 Nov 23:35:19 23:39:38 67° 259° (WSW) 23:43:57 437.525
UNISAT 6 23 Nov 23:38:49 23:42:31 27° 292° (WNW) 23:46:16 437.425
CUBEBUG 1 23 Nov 23:39:57 23:42:29 15° 269° (W) 23:45:02 437.445
NANOSAT C BR1 23 Nov 23:45:25 23:49:06 30° 291° (WNW) 23:52:46 145.865
AUBIESAT-1 23 Nov 23:46:09 23:50:03 55° 68° (ENE) 23:54:21 437.475
M-CUBED/EXP-1 PRIME 23 Nov 23:49:39 23:53:35 67° 69° (ENE) 23:57:56 437.505
QB50P1 23 Nov 23:55:12 23:58:36 24° 293° (WNW) 00:01:59 145.935-145.965
BEESAT 23 Nov 23:56:48 00:01:11 37° 69° (ENE) 00:05:36 436.000
ANTELSAT 24 Nov 00:08:21 00:10:46 15° 297° (WNW) 00:13:12 437.575/2403.000
BUGSAT 1 24 Nov 00:19:03 00:21:34 16° 296° (WNW) 00:24:04 437.445
POPSAT HIP 1 24 Nov 00:20:42 00:22:52 14° 297° (WNW) 00:25:03 437.405
CUSAT 1 24 Nov 00:26:14 00:30:32 52° 262° (W) 00:36:17 437.405
STARS 24 Nov 00:28:54 00:30:09 11° 60° (ENE) 00:31:23 437.465
DANDE 24 Nov 00:41:53 00:45:56 42° 263° (W) 00:51:19 436.750
Oscar 19 24 Nov 00:42:14 00:46:30 26° 94° (E) 00:50:45 437.125/150
ISS 24 Nov 00:44:03 00:47:18 61° 328° (NNW) 00:50:34 145.825
MaSat-1 24 Nov 00:45:30 00:47:47 58° 62° (ENE) 00:50:08 437.345
YUBILEINY 24 Nov 00:47:53 00:52:32 16° 75° (ENE) 00:57:11 435.215
ITUPSAT 1 24 Nov 00:50:34 00:55:20 67° 258° (WSW) 01:00:10 437.325
RS-15 24 Nov 00:59:54 01:11:09 75° 54° (NE) 01:22:52 29.354- 29.394
KKS-1 24 Nov 01:01:24 01:05:26 34° 69° (ENE) 01:09:28 437.445
SWISSCUBE 24 Nov 01:02:42 01:07:18 46° 261° (W) 01:11:56 437.505
AUBIESAT-1 24 Nov 01:23:39 01:25:32 13° 266° (W) 01:27:30 437.475
M-CUBED/EXP-1 PRIME 24 Nov 01:28:24 01:29:15 11° 268° (W) 01:30:07 437.505
ITAMSAT 1 24 Nov 01:30:04 01:34:28 27° 95° (E) 01:38:50 435.822/435.867
BEESAT 24 Nov 01:35:15 01:39:07 24° 266° (W) 01:43:00 436.000
Gurwin Techsat 1B 24 Nov 01:48:55 01:53:13 25° 94° (E) 01:57:29 435.225
STARS 24 Nov 02:01:35 02:05:59 79° 257° (WSW) 02:10:25 437.465
HORYU 2 24 Nov 02:09:13 02:11:43 15° 91° (E) 02:14:13 437.375
Oscar 19 24 Nov 02:21:09 02:25:56 40° 291° (WNW) 02:30:43 437.125/150
ISS 24 Nov 02:22:03 02:24:28 19° 348° (NNW) 02:26:52 145.825
AO-7 24 Nov 02:32:06 02:36:02 14° 87° (E) 02:39:57 29.400- 29.500
KKS-1 24 Nov 02:38:38 02:42:08 23° 266° (W) 02:45:40 437.445
YUBILEINY 24 Nov 02:39:03 02:47:51 81° 95° (E) 02:56:39 435.215
SO-50 24 Nov 03:04:04 03:07:13 19° 110° (ESE) 03:10:26 436.795
ITAMSAT 1 24 Nov 03:09:17 03:14:01 37° 292° (WNW) 03:18:44 435.822/435.867
PCSat 24 Nov 03:10:15 03:12:59 14° 37° (NE) 03:15:43 145.827
RS-15 24 Nov 03:13:14 03:22:34 32° 255° (WSW) 03:32:16 29.354- 29.394
MOZHAYETS 4 24 Nov 03:26:28 03:30:33 32° 69° (ENE) 03:34:39
Gurwin Techsat 1B 24 Nov 03:28:20 03:33:20 43° 291° (WNW) 03:38:19 435.225
HORYU 2 24 Nov 03:44:20 03:48:43 54° 287° (WNW) 03:53:06 437.375
PRISM 24 Nov 03:52:35 03:54:11 12° 61° (ENE) 03:55:47 437.425
ISS 24 Nov 03:59:49 04:02:02 17° 8° (N) 04:04:15 145.825
AO-7 24 Nov 04:21:44 04:30:08 75° 106° (ESE) 04:38:29 29.400- 29.500
JAS-2 24 Nov 04:30:12 04:36:39 35° 93° (E) 04:42:25 435.910
YUBILEINY 24 Nov 04:39:09 04:45:42 23° 296° (WNW) 04:52:17 435.215
BEESAT 3 24 Nov 04:39:44 04:43:38 36° 50° (NE) 04:47:30 437.485
STRAND 1 24 Nov 04:41:49 04:45:18 19° 62° (ENE) 04:48:47 437.568
SO-50 24 Nov 04:42:57 04:47:21 50° 308° (NW) 04:51:55 436.795
PCSat 24 Nov 04:52:02 04:57:27 68° 58° (ENE) 05:02:50 145.827
BEESAT 2 24 Nov 04:53:18 04:57:22 44° 52° (NE) 05:01:22 435.950
CUBESAT XI-V 24 Nov 05:02:01 05:05:52 25° 67° (ENE) 05:09:42 437.345
MOZHAYETS 4 24 Nov 05:04:00 05:07:47 25° 266° (W) 05:11:37
AIST 2 24 Nov 05:18:14 05:22:20 40° 51° (NE) 05:26:22 435.215
PRISM 24 Nov 05:25:00 05:29:10 68° 258° (WSW) 05:33:24 437.425
Cubesat XI-IV 24 Nov 05:31:45 05:36:17 28° 95° (E) 05:40:46 437.490
AIST 1 24 Nov 05:35:35 05:37:35 13° 68° (ENE) 05:39:35
ISS 24 Nov 05:36:10 05:39:20 41° 28° (NNE) 05:42:29 145.825
O/OREOS (USA 219) 24 Nov 06:02:53 06:07:19 64° 109° (ESE) 06:11:45 437.305
CUTE-I 24 Nov 06:13:15 06:18:34 65° 102° (ESE) 06:23:49 437.470
JAS-2 24 Nov 06:15:00 06:21:48 44° 294° (WNW) 06:27:51 435.910
AO-7 24 Nov 06:15:30 06:22:09 28° 306° (NW) 06:28:48 29.400- 29.500
BEESAT 3 24 Nov 06:18:21 06:21:41 23° 247° (WSW) 06:24:59 437.485
STRAND 1 24 Nov 06:18:56 06:24:01 59° 259° (W) 06:29:07 437.568
SO-50 24 Nov 06:28:08 06:29:03 11° 330° (NNW) 06:29:59 436.795
BEESAT 2 24 Nov 06:32:22 06:35:20 19° 249° (WSW) 06:38:17 435.950
PCSat 24 Nov 06:36:52 06:40:16 17° 255° (WSW) 06:43:40 145.827
GONETS M04 24 Nov 06:36:53 06:42:10 18° 76° (ENE) 06:47:28
CUBESAT XI-V 24 Nov 06:38:49 06:43:07 35° 263° (W) 06:47:28 437.345
AIST 2 24 Nov 06:57:27 07:00:43 21° 248° (WSW) 07:03:56 435.215
AIST 1 24 Nov 07:11:22 07:15:41 58° 266° (W) 07:19:57
Cubesat XI-IV 24 Nov 07:11:32 07:16:27 38° 292° (WNW) 07:21:19 437.490
ISS 24 Nov 07:13:03 07:15:51 26° 225° (SW) 07:18:39 145.825
O/OREOS (USA 219) 24 Nov 07:44:34 07:47:10 15° 308° (NW) 07:49:46 437.305
CUTE 1.7 & AOD 2 24 Nov 07:54:26 07:56:56 15° 91° (E) 07:59:26 437.475
CUTE-I 24 Nov 07:54:38 07:58:05 18° 299° (WNW) 08:01:32 437.470
GOMX 1 24 Nov 08:22:26 08:25:32 20° 94° (E) 08:28:39 467.674
Oscar 11 24 Nov 08:25:59 08:26:58 11° 89° (E) 08:27:56 145.826/435.025
GONETS M04 24 Nov 08:28:49 08:37:38 88° 96° (E) 08:46:32
SEEDS 24 Nov 08:28:59 08:32:48 31° 96° (E) 08:36:36 437.485
POLYITAN 1 24 Nov 08:37:06 08:37:56 11° 61° (ENE) 08:38:45 437.675
QB50P2 24 Nov 08:39:25 08:40:43 11° 61° (ENE) 08:42:02 145.880/145.840
BRITE-PL 24 Nov 08:40:25 08:44:24 44° 99° (E) 08:48:23 437.365/2234.400
CINEMA 3 24 Nov 08:40:45 08:43:08 15° 92° (E) 08:45:32 145.822/145.860
DX 1 24 Nov 08:45:18 08:47:57 16° 92° (E) 08:50:35 434.975-435.025
DUCHIFAT 1 24 Nov 08:46:01 08:48:00 13° 63° (ENE) 08:49:59 145.980
AAUSAT CUBESAT 2 24 Nov 08:49:42 08:53:41 39° 98° (E) 08:57:39 437.432
HO-68 24 Nov 08:49:50 08:56:59 63° 103° (ESE) 09:04:03 435.675
TIGRISAT 24 Nov 08:50:10 08:53:17 20° 66° (ENE) 08:56:24 435.000
CANX-2 24 Nov 08:53:54 08:58:13 76° 102° (ESE) 09:02:30 2200.000
UNISAT 6 24 Nov 09:02:09 09:05:45 27° 68° (ENE) 09:09:22 437.425
COMPASS 1 24 Nov 09:03:28 09:07:41 65° 101° (E) 09:11:54 437.405
NANOSAT C BR1 24 Nov 09:03:47 09:06:55 20° 66° (ENE) 09:10:02 145.865
DELFI C3 24 Nov 09:05:09 09:08:35 25° 95° (E) 09:11:59 145.870
ZACube-1 24 Nov 09:11:58 09:14:27 15° 92° (E) 09:16:58 437.345
QB50P1 24 Nov 09:12:59 09:16:28 25° 68° (ENE) 09:19:57 145.935-145.965
